Flag for Spain Weather past 2 weeks in Zaragoza, Spain

Now
70 °F

Scattered clouds.


Feels Like: 70 °F
Forecast: 54 / 74 °F
Wind: 8 mph from Northwest

Location: Zaragoza / Aeropuerto

Current Time: Sep 4, 2015 at 3:33:19 PM

Latest Report: Sep 4, 2015 at 3:00 PM


Visibility: N/A

Pressure: 30.01 "Hg

Humidity: 46%

Dew point: 48 °F

Location of ZaragozaLocation

Historic Weather in Zaragoza — Graph

°F

Zaragoza temperature yesterday

Maximum temperature yesterday: 73 °F (at 3:30 PM)
Minimum temperature yesterday: 61 °F (at 4:30 AM)
Average temperature yesterday: 66 °F

Past Weeks' High & Low Weather Summary

 TemperatureHumidityPressure
High97 °F (Aug 28, 6:30 PM)100% (Sep 2, 5:00 AM)30.15 "Hg (Sep 2, 5:00 AM)
Low57 °F (Aug 25, 6:00 AM)19% (Aug 23, 7:30 PM)29.68 "Hg (Aug 23, 7:30 PM)
Average76 °F56%30.00 "Hg
* Reported Aug 20 2:00 PM — Sep 4 2:30 PM, Zaragoza, Weather by CustomWeather, © 2015

Note: Actual official high and low records may vary slightly from our data, if they occured in-between our weather recording intervals... More about our weather records

Advertising

Zaragoza weather history for previous 24 hours

 ConditionsComfort  
Time TempWeatherWind HumidityBarometerVisibility
2:30 PM
Fri, Sep 4
70 °FScattered clouds.8 mph46%30.01 "HgN/A
2:00 PM68 °FScattered clouds.13 mph53%30.01 "HgN/A
1:30 PM66 °FPartly sunny.13 mph56%30.04 "HgN/A
1:00 PM66 °FScattered clouds.16 mph52%30.04 "HgN/A
12:30 PM66 °FScattered clouds.15 mph56%30.04 "HgN/A
12:00 PM63 °FBroken clouds.12 mph64%30.04 "HgN/A
11:30 AM64 °FPartly sunny.15 mph60%30.04 "HgN/A
11:00 AM63 °FPartly sunny.15 mph64%30.04 "HgN/A
10:30 AM61 °FPartly sunny.14 mph68%30.04 "HgN/A
10:00 AM61 °FPartly sunny.16 mph68%30.04 "HgN/A
9:30 AM59 °FPartly sunny.14 mph77%30.04 "HgN/A
9:00 AM59 °FScattered clouds.14 mph77%30.04 "HgN/A
8:30 AM59 °FPassing clouds.14 mph72%30.04 "HgN/A
8:00 AM57 °FPassing clouds.12 mph82%30.01 "HgN/A
7:30 AM57 °FPassing clouds.14 mph82%30.01 "HgN/A
7:00 AM57 °FPassing clouds.12 mph82%30.01 "HgN/A
6:30 AM59 °FPassing clouds.15 mph77%30.01 "HgN/A
6:00 AM59 °FPassing clouds.13 mph77%30.01 "HgN/A
5:30 AM59 °FPassing clouds.15 mph77%30.01 "HgN/A
5:00 AM59 °FPassing clouds.15 mph77%30.01 "HgN/A
4:30 AM59 °FPassing clouds.14 mph77%30.01 "HgN/A
4:00 AM59 °FPassing clouds.13 mph77%30.01 "HgN/A
3:30 AM59 °FPassing clouds.12 mph77%30.04 "HgN/A
3:00 AM61 °FPassing clouds.14 mph72%30.04 "HgN/A
2:30 AM61 °FPassing clouds.17 mph68%30.04 "HgN/A
2:00 AM61 °FPassing clouds.18 mph72%30.04 "HgN/A
1:30 AM61 °FPassing clouds.22 mph72%30.04 "HgN/A
1:00 AM63 °FPassing clouds.17 mph68%30.04 "HgN/A
12:30 AM63 °FPassing clouds.16 mph68%30.04 "HgN/A
11:00 PM
Thu, Sep 3
63 °FPassing clouds.18 mph68%30.04 "HgN/A
10:30 PM64 °FPassing clouds.21 mph68%30.04 "HgN/A
10:00 PM64 °FPassing clouds.17 mph68%30.01 "HgN/A
9:30 PM66 °FPassing clouds.18 mph64%30.01 "HgN/A
9:00 PM68 °FPassing clouds.18 mph60%29.98 "HgN/A
8:30 PM70 °FPassing clouds.15 mph53%29.98 "HgN/A
8:00 PM70 °FPassing clouds.16 mph53%29.98 "HgN/A
7:30 PM72 °FPassing clouds.17 mph53%29.95 "HgN/A
7:00 PM73 °FPassing clouds.16 mph50%29.95 "HgN/A
6:30 PM73 °FPassing clouds.20 mph50%29.95 "HgN/A
6:00 PM73 °FPassing clouds.18 mph53%29.95 "HgN/A
5:30 PM73 °FPassing clouds.16 mph53%29.95 "HgN/A
5:00 PM73 °FPassing clouds.20 mph53%29.95 "HgN/A
4:30 PM73 °FPassing clouds.18 mph57%29.95 "HgN/A
4:00 PM73 °FPassing clouds.16 mph53%29.98 "HgN/A
3:30 PM73 °FPassing clouds.17 mph53%29.98 "HgN/A
3:00 PM72 °FPassing clouds.16 mph61%29.98 "HgN/A
Weather by CustomWeather, © 2015

See weather overviewHow to use our weather pages